Time,TemperatureF,DewpointF,PressureIn,WindDirection,WindDirectionDegrees,WindSpeedMPH,WindSpeedGustMPH,Humidity,HourlyPrecipIn,Conditions,Clouds,dailyrainin,SoftwareType,DateUTC
2013-03-06 00:01:00,50.0,45.0,30.14,WSW,241,0.0,-999.0,84,-99.99,,,-99.99,,2013-03-06 08:01:00,
2013-03-06 00:11:00,50.0,45.0,30.14,WSW,241,0.0,-999.0,84,-99.99,,,-99.99,,2013-03-06 08:11:00,
2013-03-06 00:21:00,50.0,45.0,30.15,WSW,242,0.0,-999.0,84,-99.99,,,-99.99,,2013-03-06 08:21:00,
2013-03-06 00:31:00,50.0,45.0,30.15,WSW,242,0.0,-999.0,84,-99.99,,,-99.99,,2013-03-06 08:31:00,
2013-03-06 00:42:00,50.0,45.0,30.15,WSW,242,0.0,-999.0,84,-99.99,,,-99.99,,2013-03-06 08:42:00,
2013-03-06 00:52:00,49.0,44.0,30.15,WSW,242,0.0,-999.0,84,-99.99,,,-99.99,,2013-03-06 08:52:00,
2013-03-06 01:01:00,50.0,45.0,30.15,WSW,242,0.0,-999.0,84,-99.99,,,-99.99,,2013-03-06 09:01:00,
2013-03-06 01:12:00,50.0,45.0,30.15,WSW,242,0.0,-999.0,84,-99.99,,,-99.99,,2013-03-06 09:12:00,
2013-03-06 01:21:00,49.0,45.0,30.15,WSW,242,0.0,-999.0,85,-99.99,,,-99.99,,2013-03-06 09:21:00,
2013-03-06 01:31:00,49.0,45.0,30.15,WSW,242,0.0,-999.0,85,-99.99,,,-99.99,,2013-03-06 09:31:00,
2013-03-06 01:41:00,49.0,45.0,30.15,WSW,242,0.0,-999.0,85,-99.99,,,-99.99,,2013-03-06 09:41:00,
2013-03-06 01:52:00,49.0,45.0,30.16,WSW,242,0.0,-999.0,85,-99.99,,,-99.99,,2013-03-06 09:52:00,
2013-03-06 02:01:00,49.0,45.0,30.15,WSW,242,0.0,-999.0,85,-99.99,,,-99.99,,2013-03-06 10:01:00,
2013-03-06 02:11:00,49.0,45.0,30.15,WSW,242,0.0,-999.0,85,-99.99,,,-99.99,,2013-03-06 10:11:00,
2013-03-06 02:21:00,49.0,45.0,30.16,WSW,242,0.0,-999.0,85,-99.99,,,-99.99,,2013-03-06 10:21:00,
2013-03-06 02:31:00,49.0,45.0,30.16,WSW,242,0.0,-999.0,85,-99.99,,,-99.99,,2013-03-06 10:31:00,
2013-03-06 02:41:00,49.0,45.0,30.16,WSW,242,0.0,-999.0,85,-99.99,,,-99.99,,2013-03-06 10:41:00,
2013-03-06 02:52:00,49.0,45.0,30.16,WSW,243,0.0,-999.0,85,-99.99,,,-99.99,,2013-03-06 10:52:00,
2013-03-06 03:01:00,49.0,45.0,30.15,WSW,244,0.0,-999.0,85,-99.99,,,-99.99,,2013-03-06 11:01:00,
2013-03-06 03:11:00,49.0,45.0,30.15,WSW,244,0.0,-999.0,85,-99.99,,,-99.99,,2013-03-06 11:11:00,
2013-03-06 03:22:00,49.0,45.0,30.15,WSW,244,0.0,-999.0,85,-99.99,,,-99.99,,2013-03-06 11:22:00,
2013-03-06 03:31:00,49.0,44.0,30.14,WSW,243,0.0,-999.0,84,-99.99,,,-99.99,,2013-03-06 11:31:00,
2013-03-06 03:42:00,49.0,44.0,30.14,WSW,243,0.0,-999.0,84,-99.99,,,-99.99,,2013-03-06 11:42:00,
2013-03-06 03:52:00,48.0,43.0,30.14,WSW,244,0.0,-999.0,84,-99.99,,,-99.99,,2013-03-06 11:52:00,
2013-03-06 04:01:00,48.0,43.0,30.14,WSW,243,0.0,-999.0,84,-99.99,,,-99.99,,2013-03-06 12:01:00,
2013-03-06 04:11:00,48.0,43.0,30.14,WSW,243,0.0,-999.0,84,-99.99,,,-99.99,,2013-03-06 12:11:00,
2013-03-06 04:21:00,47.0,42.0,30.14,WSW,243,0.0,-999.0,84,-99.99,,,-99.99,,2013-03-06 12:21:00,
2013-03-06 04:32:00,46.0,42.0,30.14,WSW,244,0.0,-999.0,85,-99.99,,,-99.99,,2013-03-06 12:32:00,
2013-03-06 04:42:00,46.0,42.0,30.14,WSW,244,0.0,-999.0,85,-99.99,,,-99.99,,2013-03-06 12:42:00,
2013-03-06 04:52:00,46.0,42.0,30.14,WSW,244,0.0,-999.0,86,-99.99,,,-99.99,,2013-03-06 12:52:00,
2013-03-06 05:01:00,46.0,42.0,30.15,WSW,244,0.0,-999.0,87,-99.99,,,-99.99,,2013-03-06 13:01:00,
2013-03-06 05:11:00,46.0,42.0,30.15,WSW,244,0.0,-999.0,87,-99.99,,,-99.99,,2013-03-06 13:11:00,
2013-03-06 05:21:00,46.0,43.0,30.15,WSW,244,0.0,-999.0,88,-99.99,,,-99.99,,2013-03-06 13:21:00,
2013-03-06 05:31:00,46.0,42.0,30.14,WSW,244,0.0,-999.0,87,-99.99,,,-99.99,,2013-03-06 13:31:00,
2013-03-06 05:42:00,46.0,42.0,30.14,WSW,244,0.0,-999.0,87,-99.99,,,-99.99,,2013-03-06 13:42:00,
2013-03-06 05:52:00,46.0,42.0,30.14,WSW,244,0.0,-999.0,87,-99.99,,,-99.99,,2013-03-06 13:52:00,
2013-03-06 06:01:00,45.0,42.0,30.15,WSW,244,0.0,-999.0,88,-99.99,,,-99.99,,2013-03-06 14:01:00,
2013-03-06 06:11:00,45.0,42.0,30.15,WSW,244,0.0,-999.0,88,-99.99,,,-99.99,,2013-03-06 14:11:00,
2013-03-06 06:21:00,45.0,42.0,30.15,WSW,243,0.0,-999.0,88,-99.99,,,-99.99,,2013-03-06 14:21:00,
2013-03-06 06:31:00,45.0,42.0,30.15,WSW,242,0.0,-999.0,88,-99.99,,,-99.99,,2013-03-06 14:31:00,
2013-03-06 06:41:00,45.0,42.0,30.15,WSW,242,0.0,-999.0,88,-99.99,,,-99.99,,2013-03-06 14:41:00,
2013-03-06 06:52:00,44.0,41.0,30.15,WSW,243,0.0,-999.0,88,-99.99,,,-99.99,,2013-03-06 14:52:00,
2013-03-06 07:01:00,44.0,41.0,30.16,WSW,244,0.0,-999.0,89,-99.99,,,-99.99,,2013-03-06 15:01:00,
2013-03-06 07:11:00,44.0,41.0,30.16,WSW,244,0.0,-999.0,89,-99.99,,,-99.99,,2013-03-06 15:11:00,
2013-03-06 07:21:00,44.0,41.0,30.16,WSW,244,0.0,-999.0,89,-99.99,,,-99.99,,2013-03-06 15:21:00,
2013-03-06 07:32:00,46.0,43.0,30.17,WSW,243,0.0,-999.0,89,-99.99,,,-99.99,,2013-03-06 15:32:00,
2013-03-06 07:41:00,46.0,43.0,30.17,WSW,243,0.0,-999.0,89,-99.99,,,-99.99,,2013-03-06 15:41:00,
2013-03-06 07:52:00,47.0,44.0,30.17,WSW,244,0.0,-999.0,88,-99.99,,,-99.99,,2013-03-06 15:52:00,
2013-03-06 08:01:00,48.0,44.0,30.17,WSW,243,0.0,-999.0,86,-99.99,,,-99.99,,2013-03-06 16:01:00,
2013-03-06 08:11:00,48.0,44.0,30.17,WSW,243,0.0,-999.0,86,-99.99,,,-99.99,,2013-03-06 16:11:00,
2013-03-06 08:21:00,49.0,44.0,30.17,WSW,243,0.0,-999.0,84,-99.99,,,-99.99,,2013-03-06 16:21:00,
2013-03-06 08:32:00,49.0,44.0,30.17,WSW,243,0.0,-999.0,84,-99.99,,,-99.99,,2013-03-06 16:32:00,
2013-03-06 08:41:00,49.0,44.0,30.17,WSW,243,0.0,-999.0,84,-99.99,,,-99.99,,2013-03-06 16:41:00,
2013-03-06 08:52:00,52.0,45.0,30.17,WSW,244,0.0,-999.0,78,-99.99,,,-99.99,,2013-03-06 16:52:00,
2013-03-06 09:01:00,52.0,44.0,30.18,WSW,244,0.0,-999.0,74,-99.99,,,-99.99,,2013-03-06 17:01:00,
2013-03-06 09:11:00,52.0,44.0,30.18,WSW,244,0.0,-999.0,74,-99.99,,,-99.99,,2013-03-06 17:11:00,
2013-03-06 09:21:00,53.0,44.0,30.16,NE,54,0.0,-999.0,72,-99.99,,,-99.99,,2013-03-06 17:21:00,
2013-03-06 09:31:00,54.0,44.0,30.17,East,79,0.0,-999.0,68,-99.99,,,-99.99,,2013-03-06 17:31:00,
2013-03-06 09:41:00,54.0,44.0,30.17,East,79,0.0,-999.0,68,-99.99,,,-99.99,,2013-03-06 17:41:00,
2013-03-06 09:52:00,54.0,43.0,30.17,East,96,0.0,-999.0,66,-99.99,,,-99.99,,2013-03-06 17:52:00,
2013-03-06 10:01:00,54.0,43.0,30.17,East,96,0.0,-999.0,66,-99.99,,,-99.99,,2013-03-06 18:01:00,
2013-03-06 10:28:00,56.0,44.0,30.16,East,98,0.0,-999.0,64,-99.99,,,-99.99,,2013-03-06 18:28:00,
2013-03-06 10:42:00,56.0,43.0,30.16,East,98,0.0,-999.0,62,-99.99,,,-99.99,,2013-03-06 18:42:00,
2013-03-06 10:52:00,56.0,43.0,30.16,East,99,0.0,-999.0,62,-99.99,,,-99.99,,2013-03-06 18:52:00,
2013-03-06 11:01:00,56.0,43.0,30.17,WSW,238,0.0,-999.0,62,-99.99,,,-99.99,,2013-03-06 19:01:00,
2013-03-06 11:11:00,56.0,43.0,30.17,WSW,238,0.0,-999.0,62,-99.99,,,-99.99,,2013-03-06 19:11:00,
2013-03-06 11:21:00,56.0,44.0,30.16,WSW,238,0.0,-999.0,64,-99.99,,,-99.99,,2013-03-06 19:21:00,
2013-03-06 11:31:00,56.0,44.0,30.16,WSW,244,0.0,-999.0,64,-99.99,,,-99.99,,2013-03-06 19:31:00,
2013-03-06 11:42:00,56.0,44.0,30.16,WSW,244,0.0,-999.0,64,-99.99,,,-99.99,,2013-03-06 19:42:00,
2013-03-06 11:52:00,56.0,44.0,30.16,WSW,238,0.0,-999.0,65,-99.99,,,-99.99,,2013-03-06 19:52:00,
2013-03-06 12:01:00,56.0,45.0,30.16,WSW,248,0.0,-999.0,66,-99.99,,,-99.99,,2013-03-06 20:01:00,
2013-03-06 12:11:00,56.0,45.0,30.16,WSW,248,0.0,-999.0,66,-99.99,,,-99.99,,2013-03-06 20:11:00,
2013-03-06 12:21:00,55.0,44.0,30.16,WSW,240,0.0,-999.0,66,-99.99,,,-99.99,,2013-03-06 20:21:00,
2013-03-06 12:31:00,55.0,45.0,30.15,West,276,1.0,-999.0,68,-99.99,,,-99.99,,2013-03-06 20:31:00,
2013-03-06 12:41:00,55.0,45.0,30.15,West,276,1.0,-999.0,68,-99.99,,,-99.99,,2013-03-06 20:41:00,
2013-03-06 12:52:00,55.0,45.0,30.14,West,274,0.0,-999.0,69,-99.99,,,-99.99,,2013-03-06 20:52:00,
2013-03-06 13:01:00,55.0,46.0,30.14,West,261,0.0,-999.0,71,-99.99,,,-99.99,,2013-03-06 21:01:00,
2013-03-06 13:11:00,55.0,46.0,30.14,West,261,0.0,-999.0,71,-99.99,,,-99.99,,2013-03-06 21:11:00,
2013-03-06 13:22:00,54.0,46.0,30.14,West,263,0.0,-999.0,73,-99.99,,,-99.99,,2013-03-06 21:22:00,
2013-03-06 13:31:00,54.0,47.0,30.13,West,263,0.0,-999.0,76,-99.99,,,-99.99,,2013-03-06 21:31:00,
2013-03-06 13:41:00,54.0,47.0,30.13,West,263,0.0,-999.0,76,-99.99,,,-99.99,,2013-03-06 21:41:00,
2013-03-06 13:52:00,54.0,48.0,30.13,West,262,0.0,-999.0,79,-99.99,,,-99.99,,2013-03-06 21:52:00,
2013-03-06 14:01:00,53.0,47.0,30.12,West,262,0.0,-999.0,79,-99.99,,,-99.99,,2013-03-06 22:01:00,
2013-03-06 14:11:00,53.0,47.0,30.12,West,262,0.0,-999.0,79,-99.99,,,-99.99,,2013-03-06 22:11:00,
2013-03-06 14:21:00,54.0,47.0,30.11,West,264,0.0,-999.0,78,-99.99,,,-99.99,,2013-03-06 22:21:00,
2013-03-06 14:31:00,54.0,47.0,30.11,West,262,0.0,-999.0,78,-99.99,,,-99.99,,2013-03-06 22:31:00,
2013-03-06 14:41:00,54.0,47.0,30.11,West,262,0.0,-999.0,78,-99.99,,,-99.99,,2013-03-06 22:41:00,
2013-03-06 14:52:00,54.0,47.0,30.11,West,260,0.0,-999.0,78,-99.99,,,-99.99,,2013-03-06 22:52:00,
2013-03-06 15:01:00,54.0,47.0,30.11,WSW,254,0.0,-999.0,78,-99.99,,,-99.99,,2013-03-06 23:01:00,
2013-03-06 15:11:00,54.0,47.0,30.11,WSW,254,0.0,-999.0,78,-99.99,,,-99.99,,2013-03-06 23:11:00,
2013-03-06 15:21:00,55.0,48.0,30.10,WSW,255,0.0,-999.0,78,-99.99,,,-99.99,,2013-03-06 23:21:00,
2013-03-06 15:31:00,55.0,48.0,30.10,WSW,257,0.0,-999.0,76,-99.99,,,-99.99,,2013-03-06 23:31:00,
2013-03-06 15:41:00,55.0,48.0,30.10,WSW,257,0.0,-999.0,76,-99.99,,,-99.99,,2013-03-06 23:41:00,
2013-03-06 15:52:00,55.0,48.0,30.09,WSW,257,0.0,-999.0,76,-99.99,,,-99.99,,2013-03-06 23:52:00,
2013-03-06 16:01:00,56.0,48.0,30.09,WSW,258,0.0,-999.0,75,-99.99,,,-99.99,,2013-03-07 00:01:00,
2013-03-06 16:11:00,56.0,48.0,30.09,WSW,258,0.0,-999.0,75,-99.99,,,-99.99,,2013-03-07 00:11:00,
2013-03-06 16:21:00,55.0,47.0,30.09,West,259,0.0,-999.0,74,-99.99,,,-99.99,,2013-03-07 00:21:00,
2013-03-06 16:31:00,55.0,47.0,30.09,WSW,243,1.0,-999.0,75,-99.99,,,-99.99,,2013-03-07 00:31:00,
2013-03-06 16:41:00,55.0,47.0,30.09,WSW,243,1.0,-999.0,75,-99.99,,,-99.99,,2013-03-07 00:41:00,
2013-03-06 16:52:00,55.0,48.0,30.08,WSW,239,1.0,-999.0,78,-99.99,,,-99.99,,2013-03-07 00:52:00,
2013-03-06 17:01:00,54.0,48.0,30.09,WSW,240,1.0,-999.0,80,-99.99,,,-99.99,,2013-03-07 01:01:00,
2013-03-06 17:11:00,54.0,48.0,30.09,WSW,240,1.0,-999.0,80,-99.99,,,-99.99,,2013-03-07 01:11:00,
2013-03-06 17:21:00,54.0,48.0,30.08,WSW,240,0.0,-999.0,81,-99.99,,,-99.99,,2013-03-07 01:21:00,
2013-03-06 17:31:00,53.0,48.0,30.08,WSW,245,1.0,-999.0,82,-99.99,,,-99.99,,2013-03-07 01:31:00,
2013-03-06 17:41:00,53.0,48.0,30.08,WSW,245,1.0,-999.0,82,-99.99,,,-99.99,,2013-03-07 01:41:00,
2013-03-06 17:52:00,53.0,48.0,30.08,West,261,1.0,-999.0,83,-99.99,,,-99.99,,2013-03-07 01:52:00,
2013-03-06 18:01:00,53.0,48.0,30.08,West,261,0.0,-999.0,83,-99.99,,,-99.99,,2013-03-07 02:01:00,
2013-03-06 18:11:00,53.0,48.0,30.08,West,261,0.0,-999.0,83,-99.99,,,-99.99,,2013-03-07 02:11:00,
2013-03-06 18:21:00,53.0,48.0,30.08,West,261,0.0,-999.0,84,-99.99,,,-99.99,,2013-03-07 02:21:00,
2013-03-06 18:31:00,52.0,47.0,30.08,West,261,0.0,-999.0,84,-99.99,,,-99.99,,2013-03-07 02:31:00,
2013-03-06 18:41:00,52.0,47.0,30.08,West,261,0.0,-999.0,84,-99.99,,,-99.99,,2013-03-07 02:41:00,
2013-03-06 18:52:00,52.0,47.0,30.08,West,261,0.0,-999.0,84,-99.99,,,-99.99,,2013-03-07 02:52:00,
2013-03-06 19:01:00,52.0,48.0,30.07,West,261,0.0,-999.0,85,-99.99,,,-99.99,,2013-03-07 03:01:00,
2013-03-06 19:11:00,52.0,48.0,30.07,West,261,0.0,-999.0,86,-99.99,,,-99.99,,2013-03-07 03:11:00,
2013-03-06 19:21:00,52.0,48.0,30.07,West,261,0.0,-999.0,86,-99.99,,,-99.99,,2013-03-07 03:21:00,
2013-03-06 19:31:00,52.0,48.0,30.07,West,261,0.0,-999.0,86,-99.99,,,-99.99,,2013-03-07 03:31:00,
2013-03-06 19:41:00,52.0,48.0,30.07,West,261,0.0,-999.0,86,-99.99,,,-99.99,,2013-03-07 03:41:00,
2013-03-06 19:52:00,51.0,47.0,30.07,West,261,0.0,-999.0,87,-99.99,,,-99.99,,2013-03-07 03:52:00,
2013-03-06 20:01:00,51.0,47.0,30.07,West,261,0.0,-999.0,87,-99.99,,,-99.99,,2013-03-07 04:01:00,
2013-03-06 20:11:00,51.0,47.0,30.07,West,261,0.0,-999.0,87,-99.99,,,-99.99,,2013-03-07 04:11:00,
2013-03-06 20:21:00,51.0,47.0,30.07,West,261,0.0,-999.0,87,-99.99,,,-99.99,,2013-03-07 04:21:00,
2013-03-06 20:31:00,51.0,48.0,30.07,West,261,0.0,-999.0,88,-99.99,,,-99.99,,2013-03-07 04:31:00,
2013-03-06 20:41:00,51.0,48.0,30.07,West,261,0.0,-999.0,88,-99.99,,,-99.99,,2013-03-07 04:41:00,
2013-03-06 20:52:00,51.0,48.0,30.06,West,261,0.0,-999.0,88,-99.99,,,-99.99,,2013-03-07 04:52:00,
2013-03-06 21:01:00,51.0,48.0,30.06,West,261,0.0,-999.0,88,-99.99,,,-99.99,,2013-03-07 05:01:00,
2013-03-06 21:12:00,51.0,48.0,30.06,West,261,0.0,-999.0,88,-99.99,,,-99.99,,2013-03-07 05:12:00,
2013-03-06 21:22:00,51.0,48.0,30.06,West,261,0.0,-999.0,88,-99.99,,,-99.99,,2013-03-07 05:22:00,
2013-03-06 21:31:00,51.0,48.0,30.06,West,261,0.0,-999.0,88,-99.99,,,-99.99,,2013-03-07 05:31:00,
2013-03-06 21:41:00,51.0,48.0,30.06,West,261,0.0,-999.0,88,-99.99,,,-99.99,,2013-03-07 05:41:00,
2013-03-06 21:52:00,51.0,48.0,30.07,West,261,0.0,-999.0,88,-99.99,,,-99.99,,2013-03-07 05:52:00,
2013-03-06 22:01:00,51.0,48.0,30.06,West,261,0.0,-999.0,89,-99.99,,,-99.99,,2013-03-07 06:01:00,
2013-03-06 22:11:00,51.0,48.0,30.06,West,261,0.0,-999.0,89,-99.99,,,-99.99,,2013-03-07 06:11:00,
2013-03-06 22:21:00,51.0,48.0,30.06,West,261,0.0,-999.0,89,-99.99,,,-99.99,,2013-03-07 06:21:00,
2013-03-06 22:31:00,51.0,48.0,30.06,West,261,0.0,-999.0,89,-99.99,,,-99.99,,2013-03-07 06:31:00,
2013-03-06 22:41:00,51.0,48.0,30.06,West,261,0.0,-999.0,89,-99.99,,,-99.99,,2013-03-07 06:41:00,
2013-03-06 22:52:00,51.0,48.0,30.06,West,261,0.0,-999.0,89,-99.99,,,-99.99,,2013-03-07 06:52:00,
2013-03-06 23:01:00,50.0,47.0,30.05,West,261,0.0,-999.0,89,-99.99,,,-99.99,,2013-03-07 07:01:00,
2013-03-06 23:11:00,50.0,47.0,30.05,West,261,0.0,-999.0,89,-99.99,,,-99.99,,2013-03-07 07:11:00,
2013-03-06 23:21:00,50.0,47.0,30.05,West,261,0.0,-999.0,89,-99.99,,,-99.99,,2013-03-07 07:21:00,
2013-03-06 23:31:00,50.0,47.0,30.04,West,261,0.0,-999.0,89,-99.99,,,-99.99,,2013-03-07 07:31:00,
2013-03-06 23:41:00,50.0,47.0,30.04,West,261,0.0,-999.0,89,-99.99,,,-99.99,,2013-03-07 07:41:00,
2013-03-06 23:52:00,50.0,47.0,30.04,West,261,0.0,-999.0,89,-99.99,,,-99.99,,2013-03-07 07:52:00,